Location: Alafon
(8.4500°N, 4.2333°E)
Time: 01:49:08
(UTC+00:00)

Cosmos 1244 Rocket - Pass Details

Date: 05 July 2020
Orbit: 955 x 997 km, 82.9° (Epoch: 06 August)

Event Time Altitude Azimuth Distance (km) Brightness Sun altitude
Rises 19:26:45 0° 183° (S) 3,631 7.2 -19.0°
Reaches altitude 10° 19:29:14 10° 182° (S) 2,682 6.6 -19.5°
Maximum altitude 19:35:22 88° 95° (E) 958 4.4 -20.9°
Drops below altitude 10° 19:41:30 10° 4° (N) 2,677 7.1 -22.2°
Sets 19:43:59 0° 4° (N) 3,624 7.8 -22.7°
